Regional Weather Roundup
Issued by NWS

Home | Current Version | Previous Version | Graphics & Text | Print | Product List | Glossary On
Versions: 1 2 3 4 5 6 7 8 9 10 11 12 13 14 15 16 17 18 19 20 21 22 23 24 25 26 27 28 29 30 31 32 33 34 35 36 37 38 39 40 41 42 43 44 45 46 47 48 49 50
739
ASUS43 KFSD 250402
RWRSD

WEATHER ROUNDUP FOR SOUTH DAKOTA
NATIONAL WEATHER SERVICE SIOUX FALLS SD
1100 PM CDT SUN SEP 24 2017

NOTE: "FAIR" INDICATES FEW OR NO CLOUDS BELOW 12,000 FEET WITH NO
SIGNIFICANT WEATHER AND/OR OBSTRUCTIONS TO VISIBILITY.


SDZ001>005-009-010-012>017-250500-
NORTHWEST AND NORTH CENTRAL SOUTH DAKOTA

CITY           SKY/WX    TMP DP  RH WIND       PRES   REMARKS
BUFFALO          N/A     44  42  93 N6        30.07S
FAITH            N/A     47  45  93 N10       30.11S
MOBRIDGE       CLOUDY    51  46  83 VRB7      30.07R
$$

SDZ012>016-024>037-041>051-057-063-072>074-250500-
SOUTHWEST AND SOUTH CENTRAL SOUTH DAKOTA

CITY           SKY/WX    TMP DP  RH WIND       PRES   REMARKS
RAPID CTY ARPT CLOUDY    46  43  87 N8        30.12R
PIERRE         CLOUDY    50  46  86 N8        30.06S
CUSTER         CLOUDY    39  36  89 NE8       30.09F
ELLSWORTH AFB  CLOUDY    46  46 100 N5        30.12
PHILIP         CLOUDY    50  47  89 NE7       30.09F
PINE RIDGE     CLOUDY    48  43  82 NE5       30.12R
SPEARFISH      MOCLDY    41  41 100 NW5       30.13S FOG
WINNER         CLOUDY    53  49  86 N14       30.07R
$$

SDZ004>011-016>023-039-040-250500-
NORTHEAST SOUTH DAKOTA

CITY           SKY/WX    TMP DP  RH WIND       PRES   REMARKS
ABERDEEN       CLOUDY    52  47  83 N10       30.06R
WATERTOWN      CLOUDY    51  50  96 N10       30.01R
BROOKINGS      CLOUDY    54  50  86 N13       30.01S
SISSETON         N/A     53  50  89 NW10      30.01R
$$

SDZ017-020-022-023-036>040-048>070-250500-
SOUTHEAST SOUTH DAKOTA

CITY           SKY/WX    TMP DP  RH WIND       PRES   REMARKS
SIOUX FALLS    CLOUDY    57  54  89 N9        29.99S
HURON          CLOUDY    53  49  86 N13       30.02F
CHAMBERLAIN    CLOUDY    54  50  87 N9        30.06R
MITCHELL       CLOUDY    55  51  86 N10       30.03R
YANKTON        RAIN      55  53  93 NW10      30.02R
$$

ABBREVIATIONS USED IN REMARKS
   TC - TEMPERATURE IN CELSIUS
  WCI - WIND CHILL INDEX
   HX - HEAT INDEX
  VSB - VISIBILITY





USA.gov is the U.S. government's official web portal to all federal, state and local government web resources and services.